Location: Campillo
(40.8621°N, 4.2488°W)
Time: 17:28:42
(UTC+00:00)

Cosmos 158 Rocket - Pass Details

Date: 28 September 2021
Orbit: 699 x 792 km, 74.0° (Epoch: 27 October)

Event Time Altitude Azimuth Distance (km) Brightness Sun altitude
Rises 19:07:00 0° 345° (NNW) 3,149 7.5 -12.8°
Reaches altitude 10° 19:09:28 10° 352° (N) 2,211 6.6 -13.2°
Maximum altitude 19:14:16 48° 66° (ENE) 928 4.1 -14.1°
Enters shadow 19:17:51 17° 136° (SE) 1,756 5.4 -14.8°
